Overview Statistics Trail Chart Weather Telemetry Raw packets
 

This is the latest recevied weather packets stored in our database for station/object WA1TYB-13. If no packets are shown the sender has not sent any weather packets the latest 10 day(s).

<< 97 98 99 100 101 102 103 >>
Time Temp. Humidity Pressure Rain* Wind** Luminosity Snow
1787883460 27.22° C 23% 1014.8 hPa 0 mm - 0 W/m² -
1787883159 27.78° C 23% 1014.7 hPa 0 mm - 0 W/m² -
1787882854 27.78° C 22% 1014.4 hPa 0 mm - 2 W/m² -
1787882552 27.78° C 22% 1014.8 hPa 0 mm - 5 W/m² -
1787882247 27.78° C 23% 1015 hPa 0 mm - 5 W/m² -
1787881644 27.22° C 26% 1014.4 hPa 0 mm - 7 W/m² -
1787881338 26.67° C 30% 1014.4 hPa 0 mm - 10 W/m² -
1787881033 26.67° C 31% 1014.3 hPa 0 mm - 12 W/m² -
1787880728 28.33° C 27% 1014.1 hPa 0 mm - 16 W/m² -
1787880426 29.44° C 19% 1014 hPa 0 mm - 29 W/m² -
1787880121 28.89° C 18% 1013.8 hPa 0 mm - 41 W/m² -
1787879815 28.89° C 24% 1013.8 hPa 0 mm - 53 W/m² -
1787879511 28.89° C 22% 1013.8 hPa 0 mm - 60 W/m² -
1787879206 30° C 19% 1013.8 hPa 0 mm - 96 W/m² -
1787878904 30° C 16% 1013.6 hPa 0 mm - 88 W/m² -
1787878603 30° C 16% 1013.5 hPa 0 mm - 66 W/m² -
1787878297 30° C 16% 1013.1 hPa 0 mm - 69 W/m² -
1787877993 30° C 16% 1013.4 hPa 0 mm - 70 W/m² -
1787877689 30° C 15% 1013.4 hPa 0 mm - 72 W/m² -
1787877384 30° C 15% 1013.4 hPa 0 mm - 71 W/m² -
1787877080 30.56° C 15% 1013.3 hPa 0 mm - 67 W/m² -
1787876769 31.11° C 14% 1013.2 hPa 0 mm - 90 W/m² -
1787876469 31.11° C 13% 1013.5 hPa 0 mm - 180 W/m² -
1787876168 31.11° C 14% 1013.4 hPa 0 mm - 195 W/m² -
1787875863 31.11° C 13% 1013.2 hPa 0 mm - 124 W/m² -

* Rain latest hour (hover to see other rain measurements)
** Current wind speed in m/s (hover to see current wind gust speed)